Simultaneous Nadir Overpasses (SNOs) Predictions

Prediction of SNOs between LANDSAT-8 and METOP-A Satellite Orbit:

Table of predicted SNOs for the next 14.0 days since TLE Epoch: 8/14/2021
Index Date (LANDSAT-8) Time (LANDSAT-8) Lat,Lon (LANDSAT-8) SZA (LANDSAT-8 ) Date (METOP-A) Time (METOP-A) Lat,Lon (METOP-A) SZA (METOP-A ) Distance(km) Time Diff (sec)
1 08/15/2021 00:55:51 81.34,-150.20 69.65 08/15/2021 00:54:59 81.34,-150.02 69.65 3.10 52
2 08/15/2021 01:45:18 -81.34, 17.38 110.35 08/15/2021 01:45:39 -81.34, 17.50 110.33 2.14 21
3 08/17/2021 20:30:07 81.34, -83.74 70.56 08/17/2021 20:29:20 81.35, -83.77 70.54 0.77 47
4 08/17/2021 21:19:34 -81.34, 83.86 109.44 08/17/2021 21:20:00 -81.34, 83.79 109.44 1.24 26
5 08/20/2021 16:04:22 81.34, -17.31 71.49 08/20/2021 16:03:39 81.34, -17.15 71.49 2.80 43
6 08/20/2021 16:53:49 -81.34, 150.32 108.50 08/20/2021 16:54:19 -81.33, 150.45 108.48 2.58 30
7 08/23/2021 11:38:38 81.34, 49.09 72.45 08/23/2021 11:38:00 81.34, 49.08 72.43 0.29 38
8 08/23/2021 12:28:05 -81.34,-143.25 107.54 08/23/2021 12:28:40 -81.33,-143.29 107.54 1.30 35
9 08/26/2021 07:12:54 81.33, 115.47 73.42 08/26/2021 07:12:21 81.34, 115.30 73.40 3.07 33



Historial Predications of SNOs between LANDSAT-8 and METOP-A
